sat.trackr.live / text

‹ back to catalog

STARLINK-4202

NORAD 52848 · 2022-062U

PAYLOAD ACTIVE UNKNOWN

§ Identity

Operator
Country
US
Launch date
2022-06-17
Launch site
AFETR
Launch vehicle
Mass (kg)
RCS (m²)

Purposes: comms

External: N2YO · Heavens-Above · Gunter

§ Orbital elements

Epoch: 2026-09-20T04:05:42.648000Z

Period
93.85 min
Inclination
53.1602°
Eccentricity
0.0001143
Mean motion
15.34382509 rev/d
Perigee alt
462.0 km
Apogee alt
463.5 km
Semi-major
6,840.9 km
B*
-5.2244e-5
RAAN
231.5459°
Arg perigee
94.4167°
Mean anomaly
265.6966°
Rev number
23,527

§ Raw data

STARLINK-42021 52848U 22062U   26263.17063250 -.00002140  00000+0 -52244-4 0  99912 52848  53.1602 231.5459 0001143  94.4167 265.6966 15.34382509235274

JSON: /api/v1/satellites/52848 · /tle

For live sub-satellite position, see the globe view (requires WebGL).

§ Visibility from observer

Set your observer location to see the next 7 days of passes ≥ 10°. The values pass through the URL so the page stays shareable.

No JS? Fill the form by hand. The geolocation button needs JavaScript.